Flag for Canada Weather past 2 weeks in Longueuil, Quebec, Canada

Now
80 °F

Warm.


Feels Like: 81 °F
Forecast: N/A
Wind: 5 mph from Northeast

Location: Mc Tavish

Current Time: Sep 3, 2015 at 6:19:19 PM

Latest Report: Sep 3, 2015 at 5:00 PM


Visibility: N/A

Pressure: 29.93 "Hg

Humidity: 45%

Dew point: 57 °F

Location of LongueuilLocation

Historic Weather in Longueuil — Graph

°F

Longueuil temperature yesterday

Maximum temperature yesterday: 79 °F (at 3:00 PM)
Minimum temperature yesterday: 68 °F (at 8:00 AM)
Average temperature yesterday: 73 °F

Past Weeks' High & Low Weather Summary

 TemperatureHumidityPressure
High87 °F (Aug 19, 4:00 PM)100% (Aug 21, 6:00 AM)30.16 "Hg (Aug 21, 6:00 AM)
Low59 °F (Aug 28, 6:00 AM)34% (Aug 23, 5:00 PM)29.76 "Hg (Aug 24, 4:00 PM)
Average71 °F71%29.98 "Hg
* Reported Aug 19 4:00 PM — Sep 3 4:00 PM, Longueuil, Weather by CustomWeather, © 2015

Note: Actual official high and low records may vary slightly from our data, if they occured in-between our weather recording intervals... More about our weather records

Advertising

Longueuil weather history for previous 24 hours

 ConditionsComfort  
Time TempWeatherWind HumidityBarometerVisibility
4:00 PM
Thu, Sep 3
81 °FWarm.3 mph47%29.92 "HgN/A
3:00 PM80 °FWarm.5 mph51%29.93 "HgN/A
2:00 PM79 °FWarm.5 mph55%29.93 "HgN/A
1:00 PM78 °FWarm.3 mph55%29.94 "HgN/A
12:00 PM74 °FMild.6 mph58%29.94 "HgN/A
11:00 AM75 °FMild.6 mph58%29.94 "HgN/A
10:00 AM74 °FMild.7 mph67%29.93 "HgN/A
9:00 AM73 °FMild.7 mph73%29.92 "HgN/A
8:00 AM72 °FMild.6 mph83%29.91 "HgN/A
7:00 AM72 °FMild.5 mph87%29.89 "HgN/A
6:00 AM72 °FMild.5 mph85%29.86 "HgN/A
5:00 AM72 °FMild.1 mph88%29.85 "HgN/A
4:00 AM72 °FMild.3 mph92%29.85 "HgN/A
3:00 AM72 °FMild.2 mph91%29.85 "HgN/A
2:00 AM73 °FMild.3 mph89%29.85 "HgN/A
1:00 AM73 °FMild.2 mph87%29.86 "HgN/A
12:00 AM74 °FMild.2 mph79%29.86 "HgN/A
11:00 PM
Wed, Sep 2
74 °FMild.1 mph78%29.87 "HgN/A
10:00 PM75 °FMild.2 mph82%29.87 "HgN/A
9:00 PM75 °FMild.2 mph82%29.87 "HgN/A
8:00 PM74 °FMild.2 mph82%29.87 "HgN/A
7:00 PM75 °FMild.3 mph79%29.88 "HgN/A
6:00 PM77 °FMild.2 mph74%29.88 "HgN/A
Weather by CustomWeather, © 2015

See weather overviewHow to use our weather pages